SCP
0 0 0 0 0 0 0 0 0 0 0 0 0 0 0 0 0 -0 0 0 0 0 0 0 0 0 0 0 0 0 0 0 0 0 0 0 0 0 0 0 0 0 0 0 0
0 0 0 0 0 0 0 0 0 0 0 0 0 0 0 0 0 0 0 0 0 0 0 0 0 0 0 0 0 0 0 0 0 0 0 0 0 0 0 0 0 0 0 0 0
0 0 0 0 0 0 0 0 0 0 0 0 0 0 0 0 0 0 0 0 0 0 0 0 0 0 0 0 0 0 0 -0 -0 0 0 0 0 0 0 0 0 0 0 0 0
0 0 0 0 0 0 0 0 0 0 0 0 0 0 0 0 0 0 0 0 0 0 0 0 0 0 0 0 0 0 0 -0 -0 0 0 0 0 0 0 0 0 0 0 0 0
0 0 0 0 0 0 0 0 0 0 0 0 0 0 0 0 0 0 0 0 0 0 0 0 0 0 0 0 0 0 0 0 0 0 0 0 0 0 0 0 0 0 0 0 0
-0 0 0 0 0 0 0 0 0 0 0 0 0 0 0 0 0 0 0 0 0 0 0 0 0 0 0 0 0 0 0 0 0 0 0 0 -0 0 0 0 0 0 0 0 0
0 0 0 0 0 0 0 0 0 0 0 0 0 0 0 -0 0 0 0 0 0 0 0 0 -0 -0 0 -0 -0 -0 0 0 0 0 0 0 0 0 0 0 0 0 0 0 0
0 0 0 0 0 0 0 0 0 0 0 0 0 0 0 0 0 0 0 0 0 0 0 -0 0 -0 -0 0 -0 0 0 0 -0 0 0 0 0 0 0 0 0 0 0 0 0
0 0 0 0 0 0 0 0 0 0 0 0 0 0 0 0 0 0 0 0 0 0 0 0 0 0 -0 -0 0 0 0 0 0 0 0 0 0 0 0 0 0 0 0 0 0
0 0 0 0 0 0 0 0 0 0 0 0 0 0 0 0 0 0 0 0 0 0 0 0 0 0 0 0 0 0 -0 0 0 0 0 0 0 0 0 0 0 0 0 0 0
0 0 0 0 0 0 0 0 0 0 0 0 0 0 0 0 0 0 0 0 0 0 0 0 0 0 -0 -0 -0 0 -0 0 0 0 0 0 0 -0 0 0 0 0 0 0 0
0 0 0 0 0 0 0 0 0 0 0 0 0 0 0 0 0 0 0 0 0 0 0 0 0 0 0 0 -0 -0 -0 -0 0 0 0 -0 -0 -0 0 0 0 0 0 0 0
-0 0 0 0 0 0 0 0 0 0 0 0 0 0 0 0 0 0 0 0 0 0 0 0 0 0 -0 -0 0 0 -0 -0 -0 -0 0 -0 0 0 0 0 0 0 0 0 0
-0 -0 -0 0 0 0 0 0 0 0 0 0 -0 0 0 0 0 0 0 0 0 -0 0 0 -0 0 0 -0 -0 -0 0 -0 0 -0 -0 -0 -0 0 0 0 0 0 0 0 0
-0 -0 0 -0 0 0 0 0 0 0 0 0 0 0 0 0 0 0 0 0 0 0 0 -0 -0 0 0 -0 0 -0 0 0 0 0 -0 0 0 -0 0 0 0 0 0 0 0
-0 -0 0 -0 -0 0 0 0 0 0 0 0 0 0 0 0 0 0 0 0 0 -0 0 -0 0 0 -0 0 0 -0 0 -0 0 -0 0 0 0 -0 0 0 0 0 0 0 0
0 0 0 -0 -0 0 0 0 0 0 0 0 0 0 0 0 0 0 0 0 0 0 0 0 0 0 0 0 0 0 0 0 0 0 0 -0 0 0 -0 0 0 0 0 0 0
0 0 0 0 -0 0 0 0 0 0 0 0 0 0 0 0 0 0 0 0 0 0 0 0 0 -0 0 0 0 0 0 0 0 -0 -0 0 0 0 0 0 0 0 0 0 -0
0 0 0 0 -0 0 0 0 0 0 0 0 0 0 0 0 0 0 0 0 0 0 0 0 0 0 0 0 -0 0 0 0 -0 0 -0 0 0 0 0 0 0 0 0 0 0
0 0 0 0 0 0 0 0 0 0 0 0 0 0 0 0 0 0 0 0 0 0 0 0 0 0 0 0 -0 0 0 0 -0 0 -0 0 0 0 0 0 0 0 0 0 -0
0 0 0 0 0 0 0 0 0 0 0 0 0 0 0 0 0 0 0 0 0 0 -0 -0 0 0 0 0 0 0 -0 0 -0 0 0 -0 -0 0 0 0 0 0 0 -0 -0
0 0 0 0 0 0 0 0 0 0 0 0 0 0 0 0 0 0 0 0 0 0 0 -0 0 0 0 0 0 0 0 0 0 0 -0 -0 0 0 0 0 0 0 0 -0 -0
0 0 0 0 0 0 0 0 0 0 0 0 0 0 0 0 0 0 0 0 0 0 0 0 0 0 0 0 0 -0 0 -0 -0 0 -0 0 -0 0 0 0 0 0 0 -0 -0
0 0 0 0 0 0 0 0 0 0 0 0 0 0 0 0 0 0 0 0 0 0 0 0 0 0 0 0 0 0 -0 0 -0 0 -0 -0 -0 0 0 0 0 0 -0 -0 -0
0 0 0 0 0 0 0 0 0 0 0 0 0 0 0 0 0 0 0 0 0 0 0 0 0 0 0 0 0 0 0 -0 0 0 0 0 0 -0 0 0 0 0 -0 -0 -0
0 0 0 0 -0 0 0 0 0 0 0 0 0 0 0 0 0 0 0 0 0 0 0 0 0 0 0 0 0 0 0 0 -0 0 0 -0 -0 0 0 -0 0 0 -0 -0 -0
0 0 0 -0 0 0 0 0 0 0 0 0 0 0 0 0 0 0 0 0 0 0 0 0 0 0 0 0 0 0 0 0 0 -0 -0 0 -0 -0 0 0 0 0 0 -0 -0
Wind_Speed_500mb
41 42 42 40 38 36 38 38 38 39 42 38 37 35 36 36 38 44 43 31 35 31 39 37 34 35 37 39 41 32 27 30 38 32 21 23 27 16 9 24 16 13 17 6 9
44 45 45 44 42 42 40 38 40 39 40 40 42 41 39 41 40 51 53 56 33 40 39 49 45 41 45 45 48 37 27 42 31 29 24 37 38 40 13 23 21 20 19 12 15
49 49 49 47 47 45 45 44 43 41 42 39 38 39 36 37 40 46 37 35 43 51 51 48 43 46 50 50 48 47 35 37 38 35 32 35 38 22 20 21 23 8 17 28 24
50 50 52 51 50 49 48 49 48 45 44 42 37 37 33 20 15 7 23 24 42 53 54 60 58 56 51 48 52 42 44 47 37 44 35 27 24 21 19 25 13 14 12 17 27
49 51 51 50 51 51 50 50 48 48 47 44 39 34 31 27 49 36 25 6 12 49 61 63 65 65 52 54 51 37 36 49 52 40 36 32 22 26 27 18 14 14 19 24 28
46 47 48 49 49 49 48 49 49 48 48 46 43 35 32 45 32 33 37 35 19 31 48 58 54 62 59 56 43 50 58 46 42 41 38 24 35 10 26 3 10 21 25 26 28
43 46 47 46 48 49 48 48 46 47 47 45 42 35 35 65 17 23 29 42 46 43 38 51 62 54 57 47 53 52 38 41 39 42 34 28 33 32 29 19 22 21 31 32 32
42 42 46 46 39 40 48 46 43 43 43 41 40 32 40 40 46 62 39 30 27 37 54 41 49 69 59 47 51 39 46 38 44 45 30 19 38 28 28 29 27 30 35 30 32
38 41 41 42 46 38 42 43 39 40 40 35 33 29 51 26 57 68 57 63 56 39 43 44 39 66 60 40 39 38 36 44 38 23 27 32 38 37 14 28 32 34 34 32 31
41 40 44 43 45 45 39 30 31 34 32 23 26 17 50 47 42 40 52 66 51 48 43 42 40 38 39 38 41 39 46 39 33 29 22 31 38 38 38 35 40 44 33 31 36
34 38 43 44 41 40 36 25 15 18 50 44 32 48 15 19 28 23 38 45 57 53 48 59 37 48 64 57 48 45 40 32 24 13 28 22 33 40 46 38 43 47 34 31 36
34 32 35 40 41 40 31 21 17 9 23 63 72 69 55 19 21 43 34 47 55 51 50 43 54 54 54 55 55 50 41 38 31 29 20 28 38 41 40 47 44 41 33 26 33
33 32 27 34 38 41 31 31 19 15 22 51 75 83 76 62 58 44 62 58 49 57 58 60 52 53 51 53 51 47 41 34 35 31 22 25 46 44 30 23 31 27 19 24 37
34 30 23 26 22 19 28 25 17 8 15 37 39 65 80 68 68 74 62 67 48 60 57 55 56 53 55 52 49 44 37 38 31 29 26 28 32 30 32 18 19 30 28 27 33
33 30 23 19 25 12 4 7 11 10 16 15 60 18 51 83 18 69 77 71 58 46 51 61 54 57 49 56 50 39 34 32 27 30 35 38 22 31 20 19 12 16 30 29 35
36 28 26 22 28 35 15 14 11 18 27 17 28 33 41 76 77 22 93 71 63 53 53 60 68 48 52 43 36 40 32 30 21 23 30 36 30 31 19 8 9 6 8 28 35
37 31 36 26 27 22 29 21 16 29 31 28 36 36 51 46 65 53 62 62 54 54 56 54 65 52 36 44 45 32 27 22 24 25 27 33 23 19 27 7 11 8 6 21 31
38 37 38 34 27 24 17 26 33 45 65 12 41 41 55 47 63 62 57 58 66 59 33 45 52 58 41 50 45 43 39 24 29 26 26 22 14 10 9 4 7 8 5 19 32
34 38 34 36 31 28 23 28 41 49 44 64 28 36 52 55 35 62 60 67 69 65 53 48 54 51 50 47 49 35 41 41 39 34 22 13 13 19 11 20 16 9 8 21 35
34 40 38 36 35 35 13 48 57 53 53 45 66 39 44 56 47 67 60 65 67 71 56 32 36 45 54 40 54 46 39 38 27 35 31 26 19 7 21 10 16 15 16 29 42
34 12 20 40 44 26 16 39 59 76 71 33 43 40 52 53 56 47 56 37 69 71 64 57 36 45 51 48 53 41 40 30 30 26 22 20 16 15 12 9 4 19 25 42 47
24 7 24 55 18 7 26 58 64 62 69 36 40 45 52 50 49 58 61 62 59 63 73 65 26 35 57 51 50 53 52 44 21 35 24 24 7 19 14 10 11 19 30 42 44
9 15 16 37 13 26 39 56 59 54 58 52 39 35 47 47 44 55 60 60 42 61 69 53 34 35 45 41 47 50 47 43 38 28 30 23 24 13 21 10 15 11 30 44 47
4 4 10 26 13 22 31 43 42 52 59 46 56 37 44 47 47 36 54 55 55 43 66 49 41 51 40 51 43 50 50 50 44 32 32 31 30 27 26 24 21 13 30 43 48
9 7 8 7 21 27 32 32 40 44 43 55 45 51 48 44 38 45 42 52 41 40 41 51 51 51 51 39 50 46 52 55 54 46 42 36 36 31 19 25 25 29 29 38 52
6 9 9 31 27 17 23 30 35 40 15 36 48 46 41 37 34 36 33 35 46 42 49 45 47 47 52 51 48 53 51 51 53 50 47 44 35 28 24 24 26 34 26 39 52
12 8 9 11 11 10 16 13 20 29 39 44 46 45 47 45 39 69 54 53 49 47 47 47 40 46 44 49 53 47 55 54 48 47 44 42 40 28 21 29 15 23 26 39 50
Wind_Direction_500mb
282 278 276 277 277 279 280 278 281 283 285 289 293 291 291 290 288 286 261 243 229 227 212 198 200 210 215 229 232 243 259 263 269 286 301 303 279 287 218 280 237 264 276 307 185
277 279 279 278 276 274 275 276 276 277 278 282 288 294 294 297 293 276 271 257 246 229 216 202 202 212 222 232 236 235 248 259 285 302 302 300 295 297 248 256 238 236 249 234 215
275 273 273 274 275 276 278 278 277 277 278 276 279 283 286 299 302 275 260 258 239 228 215 215 216 219 230 232 234 230 246 271 284 287 289 310 290 297 288 274 301 277 257 203 218
280 277 273 271 271 272 272 271 276 279 279 279 280 281 281 277 264 301 276 245 225 220 213 222 222 227 226 236 235 243 244 268 276 271 273 279 302 297 278 273 310 298 278 226 226
281 279 278 277 274 271 268 266 268 271 274 277 279 281 279 252 244 270 280 286 211 211 215 220 221 223 228 237 246 234 252 254 261 260 261 273 274 271 290 296 284 261 245 239 232
297 288 280 276 276 277 275 273 272 271 271 270 270 271 272 259 258 249 256 243 208 205 219 224 227 226 239 242 243 236 237 252 259 254 256 238 264 191 271 271 276 257 252 246 236
295 300 296 281 273 274 276 276 277 275 271 269 271 274 257 243 254 245 235 232 232 229 231 229 232 235 237 249 246 253 255 258 255 254 251 240 255 243 254 214 246 254 244 241 229
287 293 297 296 288 276 269 267 270 271 271 270 268 269 258 255 254 236 225 222 225 232 232 232 230 239 241 246 254 246 244 254 250 227 226 217 257 259 226 246 256 256 242 242 230
276 283 289 295 298 290 271 267 269 270 269 263 259 238 260 261 233 238 232 237 239 238 223 227 234 227 236 244 240 226 245 242 249 182 224 208 260 280 235 275 269 274 264 240 223
284 281 279 286 293 298 285 281 272 266 261 249 231 234 252 238 240 242 229 225 222 218 221 218 224 220 227 225 230 226 232 232 251 218 196 255 254 258 252 252 266 267 246 240 220
306 292 287 280 282 292 302 315 264 235 210 211 203 210 262 221 222 221 214 210 211 220 210 210 216 210 213 222 227 247 262 270 275 279 250 259 273 282 288 278 270 270 241 236 217
291 297 291 284 278 279 288 247 285 301 274 239 245 239 243 233 238 225 197 199 200 210 202 207 222 218 218 223 232 243 255 261 260 269 272 282 285 284 288 272 278 268 237 223 207
295 291 293 289 278 276 265 240 259 287 259 254 236 235 226 231 234 231 203 202 202 212 204 216 213 221 222 225 226 229 243 251 259 275 257 282 269 264 265 269 265 254 240 220 204
302 288 298 297 279 281 250 253 234 257 269 253 212 238 223 216 237 225 215 208 226 214 214 220 227 213 223 224 226 234 227 247 266 272 264 268 291 293 276 273 267 226 214 229 194
292 278 272 261 275 271 167 211 232 221 259 239 202 192 202 197 169 208 209 206 220 206 213 221 220 221 213 225 223 236 241 248 234 254 269 264 265 279 264 249 268 239 213 186 187
288 273 254 262 252 239 278 272 235 224 231 229 146 186 188 201 215 216 197 209 219 229 223 231 215 224 225 214 219 233 227 252 262 256 256 257 258 267 279 100 303 271 113 160 179
280 270 235 236 251 239 246 232 210 224 213 226 183 189 198 192 202 220 187 198 205 208 218 215 228 212 211 210 216 213 213 223 228 232 248 246 240 278 296 306 291 322 156 162 175
269 255 240 235 237 237 247 216 231 220 225 231 182 198 205 189 203 211 187 201 208 208 201 209 213 212 195 212 204 200 211 224 215 233 249 139 236 276 215 22 263 267 298 147 171
260 247 236 230 219 215 225 224 220 232 215 247 194 204 210 197 193 205 204 206 201 205 224 203 217 204 200 204 220 190 216 224 259 286 291 236 235 191 193 228 200 152 176 163 170
248 233 228 219 208 201 232 235 239 255 277 264 237 233 213 209 207 196 197 211 211 211 217 209 212 219 193 203 220 212 201 219 230 247 261 241 237 236 178 191 105 149 171 161 165
237 185 213 205 194 193 218 230 237 258 273 317 315 280 241 215 204 203 209 203 206 204 217 232 212 198 188 197 205 205 226 206 245 223 235 248 266 106 139 135 346 145 165 168 169
169 206 172 183 183 193 229 227 246 257 256 288 301 292 280 262 220 218 215 211 196 208 205 217 215 226 202 196 213 212 211 208 214 222 251 270 240 106 175 216 177 153 165 173 174
208 211 178 186 215 225 243 244 243 266 263 265 271 296 302 299 283 224 230 224 189 201 201 204 211 219 195 205 201 224 211 216 223 243 231 224 243 202 150 171 191 192 168 176 177
89 253 200 209 233 262 276 258 248 248 252 265 277 276 285 279 269 267 215 228 229 199 203 202 210 212 209 200 190 208 222 206 217 216 231 238 256 151 182 193 177 204 166 180 183
242 262 266 227 233 239 254 286 281 249 245 260 248 259 266 272 261 249 233 220 205 206 202 193 218 211 228 206 197 205 213 218 214 218 222 228 235 251 233 193 200 171 171 188 188
296 273 278 284 260 263 247 254 259 274 225 249 245 250 274 288 304 293 291 247 204 207 201 189 215 215 218 228 206 205 212 221 223 221 223 232 242 230 209 234 188 164 181 192 194
233 245 279 250 298 272 253 252 296 286 263 239 265 253 247 263 318 300 310 297 296 203 191 187 205 212 223 214 228 220 208 213 221 225 222 222 228 236 214 212 209 179 186 198 196
Wind_Speed_850mb
41 42 42 40 38 36 38 38 38 39 42 38 37 35 36 36 38 44 43 31 35 31 39 37 34 35 37 39 41 32 27 30 38 32 21 23 27 16 9 24 16 13 17 6 9
44 45 45 44 42 42 40 38 40 39 40 40 42 41 39 41 40 51 53 56 33 40 39 49 45 41 45 45 48 37 27 42 31 29 24 37 38 40 13 23 21 20 19 12 15
49 49 49 47 47 45 45 44 43 41 42 39 38 39 36 37 40 46 37 35 43 51 51 48 43 46 50 50 48 47 35 37 38 35 32 35 38 22 20 21 23 8 17 28 24
50 50 52 51 50 49 48 49 48 45 44 42 37 37 33 20 15 7 23 24 42 53 54 60 58 56 51 48 52 42 44 47 37 44 35 27 24 21 19 25 13 14 12 17 27
49 51 51 50 51 51 50 50 48 48 47 44 39 34 31 27 49 36 25 6 12 49 61 63 65 65 52 54 51 37 36 49 52 40 36 32 22 26 27 18 14 14 19 24 28
46 47 48 49 49 49 48 49 49 48 48 46 43 35 32 45 32 33 37 35 19 31 48 58 54 62 59 56 43 50 58 46 42 41 38 24 35 10 26 3 10 21 25 26 28
43 46 47 46 48 49 48 48 46 47 47 45 42 35 35 65 17 23 29 42 46 43 38 51 62 54 57 47 53 52 38 41 39 42 34 28 33 32 29 19 22 21 31 32 32
42 42 46 46 39 40 48 46 43 43 43 41 40 32 40 40 46 62 39 30 27 37 54 41 49 69 59 47 51 39 46 38 44 45 30 19 38 28 28 29 27 30 35 30 32
38 41 41 42 46 38 42 43 39 40 40 35 33 29 51 26 57 68 57 63 56 39 43 44 39 66 60 40 39 38 36 44 38 23 27 32 38 37 14 28 32 34 34 32 31
41 40 44 43 45 45 39 30 31 34 32 23 26 17 50 47 42 40 52 66 51 48 43 42 40 38 39 38 41 39 46 39 33 29 22 31 38 38 38 35 40 44 33 31 36
34 38 43 44 41 40 36 25 15 18 50 44 32 48 15 19 28 23 38 45 57 53 48 59 37 48 64 57 48 45 40 32 24 13 28 22 33 40 46 38 43 47 34 31 36
34 32 35 40 41 40 31 21 17 9 23 63 72 69 55 19 21 43 34 47 55 51 50 43 54 54 54 55 55 50 41 38 31 29 20 28 38 41 40 47 44 41 33 26 33
33 32 27 34 38 41 31 31 19 15 22 51 75 83 76 62 58 44 62 58 49 57 58 60 52 53 51 53 51 47 41 34 35 31 22 25 46 44 30 23 31 27 19 24 37
34 30 23 26 22 19 28 25 17 8 15 37 39 65 80 68 68 74 62 67 48 60 57 55 56 53 55 52 49 44 37 38 31 29 26 28 32 30 32 18 19 30 28 27 33
33 30 23 19 25 12 4 7 11 10 16 15 60 18 51 83 18 69 77 71 58 46 51 61 54 57 49 56 50 39 34 32 27 30 35 38 22 31 20 19 12 16 30 29 35
36 28 26 22 28 35 15 14 11 18 27 17 28 33 41 76 77 22 93 71 63 53 53 60 68 48 52 43 36 40 32 30 21 23 30 36 30 31 19 8 9 6 8 28 35
37 31 36 26 27 22 29 21 16 29 31 28 36 36 51 46 65 53 62 62 54 54 56 54 65 52 36 44 45 32 27 22 24 25 27 33 23 19 27 7 11 8 6 21 31
38 37 38 34 27 24 17 26 33 45 65 12 41 41 55 47 63 62 57 58 66 59 33 45 52 58 41 50 45 43 39 24 29 26 26 22 14 10 9 4 7 8 5 19 32
34 38 34 36 31 28 23 28 41 49 44 64 28 36 52 55 35 62 60 67 69 65 53 48 54 51 50 47 49 35 41 41 39 34 22 13 13 19 11 20 16 9 8 21 35
34 40 38 36 35 35 13 48 57 53 53 45 66 39 44 56 47 67 60 65 67 71 56 32 36 45 54 40 54 46 39 38 27 35 31 26 19 7 21 10 16 15 16 29 42
34 12 20 40 44 26 16 39 59 76 71 33 43 40 52 53 56 47 56 37 69 71 64 57 36 45 51 48 53 41 40 30 30 26 22 20 16 15 12 9 4 19 25 42 47
24 7 24 55 18 7 26 58 64 62 69 36 40 45 52 50 49 58 61 62 59 63 73 65 26 35 57 51 50 53 52 44 21 35 24 24 7 19 14 10 11 19 30 42 44
9 15 16 37 13 26 39 56 59 54 58 52 39 35 47 47 44 55 60 60 42 61 69 53 34 35 45 41 47 50 47 43 38 28 30 23 24 13 21 10 15 11 30 44 47
4 4 10 26 13 22 31 43 42 52 59 46 56 37 44 47 47 36 54 55 55 43 66 49 41 51 40 51 43 50 50 50 44 32 32 31 30 27 26 24 21 13 30 43 48
9 7 8 7 21 27 32 32 40 44 43 55 45 51 48 44 38 45 42 52 41 40 41 51 51 51 51 39 50 46 52 55 54 46 42 36 36 31 19 25 25 29 29 38 52
6 9 9 31 27 17 23 30 35 40 15 36 48 46 41 37 34 36 33 35 46 42 49 45 47 47 52 51 48 53 51 51 53 50 47 44 35 28 24 24 26 34 26 39 52
12 8 9 11 11 10 16 13 20 29 39 44 46 45 47 45 39 69 54 53 49 47 47 47 40 46 44 49 53 47 55 54 48 47 44 42 40 28 21 29 15 23 26 39 50
Wind_Direction_850mb
282 278 276 277 277 279 280 278 281 283 285 289 293 291 291 290 288 286 261 243 229 227 212 198 200 210 215 229 232 243 259 263 269 286 301 303 279 287 218 280 237 264 276 307 185
277 279 279 278 276 274 275 276 276 277 278 282 288 294 294 297 293 276 271 257 246 229 216 202 202 212 222 232 236 235 248 259 285 302 302 300 295 297 248 256 238 236 249 234 215
275 273 273 274 275 276 278 278 277 277 278 276 279 283 286 299 302 275 260 258 239 228 215 215 216 219 230 232 234 230 246 271 284 287 289 310 290 297 288 274 301 277 257 203 218
280 277 273 271 271 272 272 271 276 279 279 279 280 281 281 277 264 301 276 245 225 220 213 222 222 227 226 236 235 243 244 268 276 271 273 279 302 297 278 273 310 298 278 226 226
281 279 278 277 274 271 268 266 268 271 274 277 279 281 279 252 244 270 280 286 211 211 215 220 221 223 228 237 246 234 252 254 261 260 261 273 274 271 290 296 284 261 245 239 232
297 288 280 276 276 277 275 273 272 271 271 270 270 271 272 259 258 249 256 243 208 205 219 224 227 226 239 242 243 236 237 252 259 254 256 238 264 191 271 271 276 257 252 246 236
295 300 296 281 273 274 276 276 277 275 271 269 271 274 257 243 254 245 235 232 232 229 231 229 232 235 237 249 246 253 255 258 255 254 251 240 255 243 254 214 246 254 244 241 229
287 293 297 296 288 276 269 267 270 271 271 270 268 269 258 255 254 236 225 222 225 232 232 232 230 239 241 246 254 246 244 254 250 227 226 217 257 259 226 246 256 256 242 242 230
276 283 289 295 298 290 271 267 269 270 269 263 259 238 260 261 233 238 232 237 239 238 223 227 234 227 236 244 240 226 245 242 249 182 224 208 260 280 235 275 269 274 264 240 223
284 281 279 286 293 298 285 281 272 266 261 249 231 234 252 238 240 242 229 225 222 218 221 218 224 220 227 225 230 226 232 232 251 218 196 255 254 258 252 252 266 267 246 240 220
306 292 287 280 282 292 302 315 264 235 210 211 203 210 262 221 222 221 214 210 211 220 210 210 216 210 213 222 227 247 262 270 275 279 250 259 273 282 288 278 270 270 241 236 217
291 297 291 284 278 279 288 247 285 301 274 239 245 239 243 233 238 225 197 199 200 210 202 207 222 218 218 223 232 243 255 261 260 269 272 282 285 284 288 272 278 268 237 223 207
295 291 293 289 278 276 265 240 259 287 259 254 236 235 226 231 234 231 203 202 202 212 204 216 213 221 222 225 226 229 243 251 259 275 257 282 269 264 265 269 265 254 240 220 204
302 288 298 297 279 281 250 253 234 257 269 253 212 238 223 216 237 225 215 208 226 214 214 220 227 213 223 224 226 234 227 247 266 272 264 268 291 293 276 273 267 226 214 229 194
292 278 272 261 275 271 167 211 232 221 259 239 202 192 202 197 169 208 209 206 220 206 213 221 220 221 213 225 223 236 241 248 234 254 269 264 265 279 264 249 268 239 213 186 187
288 273 254 262 252 239 278 272 235 224 231 229 146 186 188 201 215 216 197 209 219 229 223 231 215 224 225 214 219 233 227 252 262 256 256 257 258 267 279 100 303 271 113 160 179
280 270 235 236 251 239 246 232 210 224 213 226 183 189 198 192 202 220 187 198 205 208 218 215 228 212 211 210 216 213 213 223 228 232 248 246 240 278 296 306 291 322 156 162 175
269 255 240 235 237 237 247 216 231 220 225 231 182 198 205 189 203 211 187 201 208 208 201 209 213 212 195 212 204 200 211 224 215 233 249 139 236 276 215 22 263 267 298 147 171
260 247 236 230 219 215 225 224 220 232 215 247 194 204 210 197 193 205 204 206 201 205 224 203 217 204 200 204 220 190 216 224 259 286 291 236 235 191 193 228 200 152 176 163 170
248 233 228 219 208 201 232 235 239 255 277 264 237 233 213 209 207 196 197 211 211 211 217 209 212 219 193 203 220 212 201 219 230 247 261 241 237 236 178 191 105 149 171 161 165
237 185 213 205 194 193 218 230 237 258 273 317 315 280 241 215 204 203 209 203 206 204 217 232 212 198 188 197 205 205 226 206 245 223 235 248 266 106 139 135 346 145 165 168 169
169 206 172 183 183 193 229 227 246 257 256 288 301 292 280 262 220 218 215 211 196 208 205 217 215 226 202 196 213 212 211 208 214 222 251 270 240 106 175 216 177 153 165 173 174
208 211 178 186 215 225 243 244 243 266 263 265 271 296 302 299 283 224 230 224 189 201 201 204 211 219 195 205 201 224 211 216 223 243 231 224 243 202 150 171 191 192 168 176 177
89 253 200 209 233 262 276 258 248 248 252 265 277 276 285 279 269 267 215 228 229 199 203 202 210 212 209 200 190 208 222 206 217 216 231 238 256 151 182 193 177 204 166 180 183
242 262 266 227 233 239 254 286 281 249 245 260 248 259 266 272 261 249 233 220 205 206 202 193 218 211 228 206 197 205 213 218 214 218 222 228 235 251 233 193 200 171 171 188 188
296 273 278 284 260 263 247 254 259 274 225 249 245 250 274 288 304 293 291 247 204 207 201 189 215 215 218 228 206 205 212 221 223 221 223 232 242 230 209 234 188 164 181 192 194
233 245 279 250 298 272 253 252 296 286 263 239 265 253 247 263 318 300 310 297 296 203 191 187 205 212 223 214 228 220 208 213 221 225 222 222 228 236 214 212 209 179 186 198 196